Location: Gebenbach
(49.5378°N, 11.8735°E)
Time: 12:56:49
(UTC+00:00)

MOS 1 Rocket - Pass Details

Date: 29 October 2020
Orbit: 615 x 829 km, 97.4° (Epoch: 28 November)

Event Time Altitude Azimuth Distance (km) Brightness Sun altitude
Rises 18:00:52 0° 15° (NNE) 3,037 6.5 -20.9°
Reaches altitude 10° 18:03:04 10° 18° (NNE) 2,148 5.7 -21.3°
Maximum altitude 18:07:46 69° 101° (ESE) 772 3.2 -22.0°
Drops below altitude 10° 18:12:44 10° 185° (S) 2,268 5.9 -22.8°
Sets 18:15:07 0° 188° (S) 3,222 6.8 -23.2°
